EW4650 Weather Reports


Display with metric or nautical units.
time (UTC)temp
F
wind
direction
speed
MPH
gust
MPH
rain 1hr
in
rain 24hr
in
rain mn
in
humidity
%
barometer
mb
20260506211529 73 36 11.0 15.0 0.00 0.05 0.05 85 1007.5
20260506211029 74 34 10.0 14.0 0.00 0.05 0.05 86 1007.4
20260506210531 74 59 9.0 13.0 0.00 0.05 0.05 87 1007.6
20260506210027 74 24 9.0 13.0 0.00 0.05 0.05 85 1007.6
20260506205527 75 18 6.0 11.0 0.00 0.05 0.05 87 1007.7
20260506205028 75 63 6.0 11.0 0.00 0.05 0.05 87 1007.8
20260506204528 75 72 6.0 12.0 0.00 0.05 0.05 86 1007.9
20260506204029 76 59 8.0 12.0 0.00 0.05 0.05 85 1007.8
20260506203526 76 63 7.0 12.0 0.00 0.05 0.05 86 1007.7
20260506203033 76 50 6.0 12.0 0.00 0.05 0.05 87 1007.8
20260506202527 76 90 7.0 12.0 0.00 0.05 0.05 87 1007.8
20260506202025 76 67 7.0 12.0 0.00 0.05 0.05 86 1007.9
20260506201525 76 67 8.0 12.0 0.00 0.05 0.05 86 1008.1
20260506201024 76 71 8.0 11.0 0.00 0.05 0.05 86 1008.1
20260506200524 75 34 6.0 10.0 0.00 0.05 0.05 87 1008.2
20260506200026 75 75 5.0 10.0 0.00 0.05 0.05 87 1008.2
20260506195524 75 66 3.0 10.0 0.00 0.05 0.05 87 1008.2
20260506195024 76 23 5.0 9.0 0.00 0.05 0.05 86 1008.3
20260506194523 76 69 4.0 9.0 0.00 0.05 0.05 89 1008.2
20260506194021 75 80 5.0 9.0 0.00 0.05 0.05 89 1008.2
20260506193520 75 79 3.0 9.0 0.00 0.05 0.05 91 1008.3
20260506193019 74 28 4.0 10.0 0.00 0.05 0.05 90 1008.5
20260506192519 74 69 6.0 10.0 0.00 0.05 0.05 90 1008.5
20260506192017 74 67 5.0 10.0 0.00 0.05 0.05 92 1008.4
20260506191518 73 24 4.0 7.0 0.00 0.05 0.05 91 1008.6
20260506191018 73 30 4.0 7.0 0.00 0.05 0.05 92 1008.6
20260506190515 73 33 4.0 6.0 0.00 0.05 0.05 92 1008.6
20260506190021 73 49 2.0 6.0 0.00 0.05 0.05 92 1008.7
20260506185514 73 76 3.0 6.0 0.00 0.05 0.05 92 1008.8
20260506185014 73 65 4.0 6.0 0.00 0.05 0.05 92 1008.8
20260506184514 73 53 3.0 6.0 0.00 0.05 0.05 93 1008.8
20260506184013 73 70 4.0 9.0 0.00 0.05 0.05 92 1008.9
20260506183512 73 67 6.0 12.0 0.00 0.05 0.05 92 1009.0
20260506183014 73 78 4.0 12.0 0.00 0.05 0.05 94 1008.9
20260506182512 73 68 8.0 11.0 0.00 0.05 0.05 95 1008.7
20260506182019 72 54 7.0 11.0 0.00 0.05 0.05 97 1008.8
20260506181512 71 74 6.0 12.0 0.00 0.05 0.05 98 1008.8
20260506181012 71 28 8.0 11.0 0.00 0.05 0.05 99 1008.9
20260506180512 70 56 7.0 11.0 0.00 0.05 0.05 99 1009.0
20260506180012 70 41 6.0 12.0 0.00 0.05 0.05 99 1009.0
20260506175512 69 63 7.0 11.0 0.00 0.05 0.05 99 1009.1
20260506175011 69 55 7.0 9.0 0.00 0.05 0.05 99 1009.1
20260506174515 68 350 3.0 9.0 0.00 0.05 0.05 99 1009.3
20260506174013 68 5 4.0 10.0 0.00 0.05 0.05 99 1009.2
20260506173511 68 39 8.0 10.0 0.00 0.05 0.05 99 1009.2
20260506173009 68 49 5.0 11.0 0.00 0.05 0.05 99 1009.1
20260506172511 68 49 8.0 12.0 0.00 0.05 0.05 100 1009.2
20260506172009 67 67 9.0 12.0 0.00 0.05 0.05 99 1009.1
20260506171514 67 34 7.0 13.0 0.00 0.05 0.05 99 1009.1
20260506171009 68 55 7.0 13.0 0.00 0.05 0.05 100 1009.1
20260506170511 68 48 9.0 13.0 0.00 0.05 0.05 100 1009.0
20260506170009 67 59 7.0 13.0 0.00 0.05 0.05 100 1009.0
20260506165510 66 47 10.0 12.0 0.00 0.05 0.05 100 1009.1
20260506165008 66 33 9.0 12.0 0.00 0.05 0.05 100 1009.1
20260506164508 66 30 9.0 12.0 0.01 0.05 0.05 100 1009.1
20260506164007 66 9 8.0 12.0 0.03 0.05 0.05 100 1009.0
20260506163505 66 30 7.0 12.0 0.03 0.05 0.05 100 1008.9
20260506163006 66 44 7.0 12.0 0.03 0.05 0.05 99 1008.8
20260506162505 66 20 9.0 12.0 0.03 0.05 0.05 100 1008.8
20260506162007 66 38 7.0 13.0 0.03 0.05 0.05 100 1008.8
20260506161504 66 46 8.0 14.0 0.03 0.05 0.05 100 1008.7
20260506161003 66 42 10.0 14.0 0.03 0.05 0.05 100 1008.5
20260506160506 66 22 8.0 15.0 0.03 0.05 0.05 99 1008.5
20260506160002 66 36 9.0 17.0 0.03 0.05 0.05 99 1008.4
20260506155600 66 32 11.0 17.0 0.03 0.05 0.05 99 1008.4
20260506155059 67 36 11.0 18.0 0.04 0.05 0.05 99 1008.4
20260506154558 68 22 13.0 18.0 0.03 0.04 0.04 98 1008.3
20260506154058 71 9 3.0 5.0 0.01 0.02 0.02 100 1008.2
20260506153557 71 9 3.0 4.0 0.01 0.02 0.02 100 1008.1
20260506153119 71 23 2.0 3.0 0.01 0.02 0.02 100 1008.0
20260506152559 71 9 1.0 2.0 0.01 0.02 0.02 100 1008.0
20260506152056 71 26 0.0 2.0 0.01 0.02 0.02 100 1008.0
20260506151556 71 26 0.0 1.0 0.01 0.02 0.02 100 1008.1
20260506151057 71 234 0.0 1.0 0.01 0.02 0.02 100 1008.0
20260506150555 71 234 0.0 0.0 0.01 0.02 0.02 100 1007.9
20260506150056 71 234 0.0 0.0 0.01 0.02 0.02 100 1007.8
20260506145556 70 234 0.0 0.0 0.01 0.02 0.02 100 1007.9
20260506145056 70 234 0.0 0.0 0.00 0.01 0.01 100 1007.9
20260506144555 70 234 0.0 1.0 0.00 0.01 0.01 100 1007.9
20260506144055 70 234 0.0 1.0 0.00 0.01 0.01 100 1007.9
20260506143555 70 234 0.0 0.0 0.00 0.01 0.01 100 1008.1
20260506143055 70 234 0.0 2.0 0.00 0.01 0.01 100 1008.1
20260506142553 70 234 0.0 2.0 0.01 0.01 0.01 100 1008.1
20260506142053 70 241 0.0 1.0 0.01 0.01 0.01 100 1007.9
20260506141553 70 241 0.0 3.0 0.01 0.01 0.01 100 1007.9
20260506141052 70 241 1.0 4.0 0.01 0.01 0.01 100 1007.7
20260506140554 70 208 1.0 4.0 0.01 0.01 0.01 100 1007.5
20260506140050 70 212 1.0 7.0 0.01 0.01 0.01 100 1007.4
20260506135551 70 242 3.0 7.0 0.01 0.01 0.01 100 1007.1
20260506135048 70 213 3.0 9.0 0.01 0.01 0.01 100 1007.1
20260506134547 70 187 5.0 9.0 0.01 0.01 0.01 100 1006.9
20260506134046 70 207 4.0 12.0 0.01 0.01 0.01 100 1006.6
20260506133546 70 175 7.0 12.0 0.01 0.01 0.01 100 1006.5
20260506133048 70 196 4.0 6.0 0.00 0.00 0.00 100 1006.4
20260506132550 70 173 3.0 7.0 0.00 0.00 0.00 100 1006.2
20260506132045 70 211 4.0 7.0 0.00 0.00 0.00 100 1006.2
20260506131545 70 196 4.0 9.0 0.00 0.00 0.00 100 1006.1
20260506131045 70 201 5.0 9.0 0.00 0.00 0.00 100 1006.1
20260506130546 70 210 2.0 7.0 0.00 0.00 0.00 100 1006.1
20260506130018 70 200 4.0 9.0 0.00 0.00 0.00 100 1006.2
20260506125517 70 219 4.0 7.0 0.00 0.00 0.00 100 1006.1
20260506125017 70 213 2.0 6.0 0.00 0.00 0.00 100 1006.1
20260506124517 70 215 4.0 6.0 0.00 0.00 0.00 100 1006.0
20260506124019 70 219 3.0 9.0 0.00 0.00 0.00 100 1005.9
20260506123520 70 188 5.0 11.0 0.00 0.00 0.00 100 1005.8
20260506123017 70 188 5.0 12.0 0.00 0.00 0.00 100 1005.8
20260506122517 70 215 7.0 16.0 0.00 0.00 0.00 100 1005.9
20260506122015 70 184 9.0 16.0 0.00 0.00 0.00 100 1005.8
20260506121515 70 216 7.0 13.0 0.00 0.00 0.00 100 1005.7
20260506121014 70 184 6.0 13.0 0.00 0.00 0.00 100 1005.6
20260506120513 70 207 6.0 13.0 0.00 0.00 0.00 100 1005.8
20260506120013 70 170 7.0 12.0 0.00 0.00 0.00 100 1005.6
20260506115512 70 167 7.0 11.0 0.00 0.00 0.00 100 1005.6
20260506115011 70 171 6.0 9.0 0.00 0.00 0.00 100 1005.7
20260506114510 70 121 5.0 11.0 0.00 0.00 0.00 100 1005.7
20260506114010 70 181 4.0 11.0 0.00 0.00 0.00 100 1005.7
20260506113510 70 172 5.0 10.0 0.00 0.00 0.00 100 1005.8
20260506113010 70 150 5.0 10.0 0.00 0.00 0.00 100 1005.8
20260506112512 70 174 7.0 12.0 0.00 0.00 0.00 100 1005.8
20260506112009 70 165 8.0 12.0 0.00 0.00 0.00 100 1005.9
20260506111520 70 155 5.0 12.0 0.00 0.00 0.00 100 1006.0
20260506111008 70 173 6.0 12.0 0.00 0.00 0.00 100 1006.0
20260506110508 70 161 6.0 11.0 0.00 0.00 0.00 100 1006.0
20260506110010 70 175 7.0 11.0 0.00 0.00 0.00 100 1005.9
20260506105507 70 144 6.0 9.0 0.00 0.00 0.00 100 1005.9
20260506105107 70 163 3.0 8.0 0.00 0.00 0.00 100 1005.9
20260506104506 70 183 3.0 8.0 0.00 0.00 0.00 100 1006.0
20260506104008 70 172 5.0 9.0 0.00 0.00 0.00 100 1005.9
20260506103507 70 155 3.0 9.0 0.00 0.00 0.00 100 1005.8
20260506103006 70 142 3.0 8.0 0.00 0.00 0.00 99 1005.9
20260506102507 70 190 4.0 10.0 0.00 0.00 0.00 99 1005.9
20260506102008 70 191 6.0 12.0 0.00 0.00 0.00 99 1005.8
20260506101505 70 185 8.0 14.0 0.00 0.00 0.00 99 1005.7
20260506101004 70 173 8.0 14.0 0.00 0.00 0.00 99 1005.6
20260506100504 70 178 7.0 16.0 0.00 0.00 0.00 99 1005.8
20260506100004 70 194 7.0 12.0 0.00 0.00 0.00 99 1005.8
20260506095503 71 178 6.0 15.0 0.00 0.00 0.00 99 1005.7
20260506095004 71 197 8.0 15.0 0.00 0.00 0.00 99 1005.7
20260506094504 71 169 7.0 12.0 0.00 0.00 0.00 99 1005.7
20260506094003 71 182 7.0 12.0 0.00 0.00 0.00 99 1005.8
20260506093502 71 145 7.0 12.0 0.00 0.00 0.00 99 1005.8
20260506093002 71 189 7.0 14.0 0.00 0.00 0.00 99 1005.9
20260506092501 71 180 8.0 17.0 0.00 0.00 0.00 99 1005.9
20260506092002 71 167 10.0 17.0 0.00 0.00 0.00 99 1005.7
20260506091503 71 174 5.0 13.0 0.00 0.00 0.00 99 1005.8
20260506091005 71 182 6.0 17.0 0.00 0.00 0.00 99 1005.8
20260506090600 71 218 9.0 17.0 0.00 0.00 0.00 99 1005.8
20260506090111 71 167 9.0 15.0 0.00 0.00 0.00 99 1005.8
20260506085559 71 180 9.0 15.0 0.00 0.00 0.00 99 1005.8
20260506085059 71 172 9.0 16.0 0.00 0.00 0.00 99 1005.7
20260506084632 71 167 9.0 17.0 0.00 0.00 0.00 99 1005.7
20260506084100 71 192 8.0 17.0 0.00 0.00 0.00 99 1005.6
20260506083558 71 202 8.0 13.0 0.00 0.00 0.00 99 1005.5
20260506083059 71 167 6.0 14.0 0.00 0.00 0.00 99 1005.5
20260506082557 71 211 5.0 17.0 0.00 0.00 0.00 98 1005.5
20260506082056 71 178 6.0 16.0 0.00 0.00 0.00 98 1005.5
20260506081611 71 153 10.0 17.0 0.00 0.00 0.00 98 1005.5
20260506081055 71 184 9.0 17.0 0.00 0.00 0.00 98 1005.5
20260506080554 71 186 9.0 16.0 0.00 0.00 0.00 98 1005.6
20260506073047 72 172 7.0 12.0 0.00 0.00 0.00 97 1005.8
20260506072548 72 144 7.0 12.0 0.00 0.00 0.00 97 1005.9
20260506072046 72 132 5.0 12.0 0.00 0.00 0.00 97 1005.9
20260506071544 72 144 8.0 12.0 0.00 0.00 0.00 96 1006.0
20260506071044 72 153 6.0 13.0 0.00 0.00 0.00 96 1006.1
20260506070542 72 180 9.0 13.0 0.00 0.00 0.00 96 1006.2
20260506062037 73 166 5.0 8.0 0.00 0.00 0.00 96 1006.3
20260506061537 73 160 4.0 9.0 0.00 0.00 0.00 96 1006.4
20260506061037 73 151 4.0 10.0 0.00 0.00 0.00 96 1006.3
20260506060536 73 136 4.0 12.0 0.00 0.00 0.00 96 1006.3
20260506051029 73 117 6.0 12.0 0.00 0.00 0.00 95 1006.1
20260506050527 73 123 7.0 11.0 0.00 0.00 0.00 95 1006.2
20260506045027 73 167 7.0 13.0 0.00 0.00 0.00 93 1006.3
20260506044525 73 106 6.0 13.0 0.00 0.00 0.00 93 1006.3
20260506044025 73 127 8.0 13.0 0.00 0.00 0.00 92 1006.3
20260506043525 74 113 4.0 13.0 0.00 0.00 0.00 92 1006.3
20260506043026 74 113 6.0 14.0 0.00 0.00 0.00 91 1006.3
20260506042526 74 122 8.0 14.0 0.00 0.00 0.00 91 1006.2
20260506042026 74 136 6.0 10.0 0.00 0.00 0.00 90 1006.2
20260506041536 74 121 6.0 11.0 0.00 0.00 0.00 90 1006.2
20260506041025 74 148 5.0 10.0 0.00 0.00 0.00 89 1006.0
20260506040524 74 121 7.0 11.0 0.00 0.00 0.00 89 1005.9
20260506040024 74 132 6.0 11.0 0.00 0.00 0.00 89 1005.9
20260506035524 74 144 7.0 13.0 0.00 0.00 0.00 89 1005.9
20260506035023 74 147 9.0 12.0 0.00 0.00 0.00 89 1006.0
20260506034533 74 139 6.0 10.0 0.00 0.00 0.00 89 1005.8
20260506034028 74 138 6.0 11.0 0.00 0.00 0.00 89 1005.7
20260506033529 74 150 5.0 11.0 0.00 0.00 0.00 89 1005.7
20260506033023 74 147 4.0 8.0 0.00 0.00 0.00 89 1005.6
20260506032523 74 142 5.0 8.0 0.00 0.00 0.00 89 1005.6
20260506032023 74 89 3.0 7.0 0.00 0.00 0.00 88 1005.6
20260506031523 74 115 2.0 7.0 0.00 0.00 0.00 87 1005.5
20260506031024 74 119 2.0 9.0 0.00 0.00 0.00 87 1005.5
20260506030525 75 118 4.0 9.0 0.00 0.00 0.00 87 1005.4
20260506030026 74 131 4.0 8.0 0.00 0.00 0.00 87 1005.2
20260506025526 75 147 4.0 8.0 0.00 0.00 0.00 87 1005.2
20260506025021 75 172 3.0 8.0 0.00 0.00 0.00 86 1005.1
20260506024525 75 140 5.0 8.0 0.00 0.00 0.00 86 1005.1
20260506024022 75 161 4.0 11.0 0.00 0.00 0.00 86 1004.9
20260506023526 74 162 6.0 11.0 0.00 0.00 0.00 87 1004.9
20260506023021 74 165 4.0 8.0 0.00 0.00 0.00 87 1004.9
20260506022521 74 138 5.0 8.0 0.00 0.00 0.00 87 1005.0
20260506022020 74 150 4.0 7.0 0.00 0.00 0.00 87 1004.7
20260506021520 75 150 5.0 7.0 0.00 0.00 0.00 86 1004.7
20260506021020 75 196 1.0 3.0 0.00 0.00 0.00 86 1004.5
20260506020523 75 197 1.0 6.0 0.00 0.00 0.00 86 1004.5
20260506020020 75 186 2.0 6.0 0.00 0.00 0.00 85 1004.4
20260506015519 75 165 4.0 5.0 0.00 0.00 0.00 85 1004.3
20260506015022 76 188 3.0 6.0 0.00 0.00 0.00 84 1004.3
20260506014522 76 163 3.0 8.0 0.00 0.00 0.00 84 1004.3
20260506014019 76 164 4.0 8.0 0.00 0.00 0.00 84 1004.2
20260506013519 76 160 5.0 7.0 0.00 0.00 0.00 83 1004.2
20260506013035 77 169 5.0 8.0 0.00 0.00 0.00 83 1004.2
20260506012519 77 176 5.0 8.0 0.00 0.00 0.00 82 1004.1
20260506012019 78 165 4.0 8.0 0.00 0.00 0.00 82 1004.0
20260506011525 78 156 4.0 7.0 0.00 0.00 0.00 80 1003.9
20260506011018 78 146 2.0 7.0 0.00 0.00 0.00 79 1003.8
20260506010518 79 144 3.0 6.0 0.00 0.00 0.00 79 1003.8
20260506010021 79 155 3.0 7.0 0.00 0.00 0.00 78 1003.7
20260506005517 80 165 3.0 7.0 0.00 0.00 0.00 77 1003.7
20260506005017 80 153 3.0 7.0 0.00 0.00 0.00 77 1003.7
20260506004518 80 186 3.0 7.0 0.00 0.00 0.00 76 1003.8
20260506004017 81 163 3.0 7.0 0.00 0.00 0.00 75 1003.8
20260506003517 81 187 3.0 6.0 0.00 0.00 0.00 75 1003.8
20260506003016 81 147 1.0 6.0 0.00 0.00 0.00 75 1003.8
20260506002516 82 170 3.0 7.0 0.00 0.00 0.00 74 1003.8
20260506002016 82 154 4.0 7.0 0.00 0.00 0.00 74 1003.8
20260506001516 82 186 2.0 4.0 0.00 0.00 0.00 74 1003.9
20260506001016 82 186 2.0 5.0 0.00 0.00 0.00 74 1003.9
20260506000514 82 170 2.0 7.0 0.00 0.00 0.00 74 1003.9
20260506000014 82 207 3.0 7.0 0.00 0.00 0.00 73 1003.9
20260505235514 81 204 3.0 7.0 0.00 0.00 0.00 72 1003.8
20260505235017 81 189 2.0 6.0 0.00 0.00 0.00 72 1003.8
20260505234514 82 206 4.0 7.0 0.00 0.00 0.00 72 1003.9
20260505234014 82 207 3.0 8.0 0.00 0.00 0.00 71 1003.9
20260505233513 82 202 4.0 8.0 0.00 0.00 0.00 71 1003.8
20260505233021 82 217 4.0 9.0 0.00 0.00 0.00 72 1003.9
20260505232514 82 199 4.0 9.0 0.00 0.00 0.00 71 1003.8
20260505232013 82 250 3.0 11.0 0.00 0.00 0.00 71 1003.9
20260505231514 82 207 5.0 10.0 0.00 0.00 0.00 70 1003.8
20260505231014 83 186 6.0 11.0 0.00 0.00 0.00 70 1003.7
20260505230514 83 180 6.0 9.0 0.00 0.00 0.00 69 1003.8
20260505230012 83 220 5.0 9.0 0.00 0.00 0.00 69 1003.8
20260505225511 83 212 4.0 9.0 0.00 0.00 0.00 68 1003.7
20260505225011 83 201 3.0 9.0 0.00 0.00 0.00 69 1003.8
20260505224512 82 187 4.0 11.0 0.00 0.00 0.00 69 1003.9
20260505224010 82 201 5.0 11.0 0.00 0.00 0.00 69 1003.9
20260505223509 83 218 4.0 10.0 0.00 0.00 0.00 69 1003.9
20260505223008 83 202 6.0 12.0 0.00 0.00 0.00 69 1003.9
20260505222512 83 178 5.0 12.0 0.00 0.00 0.00 70 1004.0
20260505222008 83 215 7.0 10.0 0.00 0.00 0.00 68 1004.1
20260505221508 83 221 6.0 10.0 0.00 0.00 0.00 68 1004.0
20260505221010 83 228 4.0 10.0 0.00 0.00 0.00 69 1004.0
20260505220506 83 233 4.0 11.0 0.00 0.00 0.00 69 1004.1
20260505220015 83 196 6.0 11.0 0.00 0.00 0.00 70 1004.1
20260505215506 83 246 7.0 10.0 0.00 0.00 0.00 70 1004.3
20260505215005 83 180 7.0 10.0 0.00 0.00 0.00 71 1004.2
20260505214505 82 205 5.0 10.0 0.00 0.00 0.00 71 1004.2
20260505214004 82 257 5.0 10.0 0.00 0.00 0.00 71 1004.2
20260505213503 82 221 5.0 10.0 0.00 0.00 0.00 72 1004.3
20260505213003 82 245 5.0 11.0 0.00 0.00 0.00 71 1004.3
20260505212503 82 239 5.0 11.0 0.00 0.00 0.00 71 1004.5
20260505212003 83 236 7.0 11.0 0.00 0.00 0.00 69 1004.4